IRIDIUM 33 DEB

Satellite information

Favourite Embed

Satellite Type and Status

DEBRISIN ORBIT

Key statistics

Satellite IRIDIUM 33 DEB at a glance.

Uptime

10220

Days in orbit

Revolutions

≈ 14.9

Per day

Orbit

LEO

Low Earth Orbit

Inclination

86.2

Latest

Satellite identification and parameters

Extended collection of information and parameters for IRIDIUM 33 DEB.

Object identification

Identified? True

Debris? True

Object name: IRIDIUM 33 DEB

International designator: 1997-051QU

Object number (NORAD): 35622

Object ID (CCSDS): 35622

Country: UNITED STATES OF AMERICA (US)

Current information (Y/N): Y

RCS size: SMALL

Orbital parameters

Period: 96.604 minutes

Inclination: 86.2102 deg

SMA: 6974.129 km

Apoapsis: 603.838 km

Periapsis: 588.151 km

RAAN: 311.059 deg

Eccentricy: 0.0011247

Argument of periapsis: 257.3112 deg

Mean anomaly: 133.2157 deg

Mean motion: 14.90622787 rev/day

Mean motion (dot): 0.00049355 rev/day2

B* drag term: 0.0050035978 1/REarth

Two-line elements (TLE)

Creation date: Sept. 6, 2025, 10:23 a.m.

Reference frame: TEME

Reference center: EARTH

Epoch: Sept. 6, 2025, 3:29 a.m. UTC

TLE line 0: 0 IRIDIUM 33 DEB

TLE line 1: 1 35622U 97051QU 25249.14569841 .00049355 00000-0 50036-2 0 9992

TLE line 2: 2 35622 86.2102 311.0590 0011247 257.3112 133.2157 14.90622787859004

Live tracking on map

Real-time ground track for satellite IRIDIUM 33 DEB.

In-orbit conjunctions

A list of the most updated potential collisions computed for object IRIDIUM 33 DEB.

Target Orbit TCA Probability of collision Miss distance Type
PSLV R/B SSO 2025-02-19 08:23:58 0.001491069 79.0 (m) ROCKET BODY
SL-14 R/B LEO 2024-12-07 10:40:58 0.0001004622 660.0 (m) ROCKET BODY
CZ-6A DEB LEO 2024-10-07 10:31:40 0.000353396 684.0 (m) DEBRIS

Associated space launch

Iridium provides global mobile telecommunications services using a constellation of 66 low earth orbit satellites in a 86.4° inclined orbit. Although 77 satellites were originally envisioned for the system and spawned the name based on the 77th element in the periodic table, the system has been scaled back. Motorola's Satellite Communications Group designed and manufactured the Iridium satellites with Lockheed Martin providing the LM-700A spacecraft buses.

IRIDIUM 33 DEB was lifted into orbit during the mission ‘Proton-K/17S40 | Iridium 27 to 33’, on board a Proton-K/17S40 space rocket.

The launch took place on Sept. 14, 1997, 1:36 a.m. from 81/23 (81L).

For more information about the launch, click the button.

Launch to space Proton-K/17S40 | Iridium 27 to 33
Proton-K/17S40 | Iridium 27 to 33

Agency: N/A

Status: Launch Successful

Launch date: Sept. 14, 1997, 1:36 a.m. UTC

Rocket: Proton-K/17S40

Launch pad: 81/23 (81L)

Location: Baikonur Cosmodrome, Republic of Kazakhstan

...

Latest news about this satellite

There are no fresh news available about this satellite. Check back as we update our databases every day.


Newsletter sign-up

Weekly statistics, charts and insights to help you stay on top of the space industry.